Location: Bratsk-Energetik
(56.3300°N, 101.7600°E)
Time: 20:17:37
(UTC+08:00)

ISS - Pass Details

Date: 30 March 2017
Orbit: 399 x 409 km, 51.6° (Epoch: 23 March)

Event Time Altitude Azimuth Distance (km) Brightness Sun altitude
Rises 20:38:43 0° 207° (SSW) 2,306 0.1 -7.7°
Reaches altitude 10° 20:41:32 10° 180° (S) 1,453 -1.2 -8.1°
Maximum altitude 20:43:15 14° 148° (SSE) 1,254 -1.8 -8.3°
Enters shadow 20:44:32 12° 123° (ESE) 1,371 -1.8 -8.5°
